Theta_e
328 321 312 309 308 306 307 297 290 287 290 285 285 286 286 292 294 293 292 293 301 314 322 326 325 323 315 314 319 324 326 316 314 310 305 320 342 341 342 345 348 349 350 353 354 354 355 355 355 355 354 354 354 354 354 354 354 353 353 353 353 353 353 353 352 352 351 351 351 352 351 350 350 350 350 350 349 349 349 349 350 350 350 350 349 349 349 347 346 346 346 345 345 345 345 345 345
319 311 307 309 309 306 301 290 284 287 282 279 286 285 287 290 294 291 294 294 305 319 325 328 329 329 328 328 328 330 328 331 330 330 335 341 342 342 345 346 348 348 351 353 354 354 354 354 355 354 354 354 354 354 354 353 354 353 353 353 353 353 353 352 352 352 351 351 351 351 351 350 350 350 350 349 349 349 348 349 349 350 350 349 349 349 347 346 347 346 345 345 345 345 345 344 345
315 304 306 307 302 300 296 293 289 282 284 280 283 287 289 292 292 292 296 297 311 324 325 325 326 325 326 326 322 320 316 336 336 337 335 341 335 337 345 348 349 350 352 353 353 354 353 353 354 354 354 354 354 354 353 353 353 352 353 353 353 353 352 352 352 352 352 351 351 351 350 350 350 350 350 349 349 349 349 348 349 349 350 349 348 348 348 349 347 346 345 345 343 343 344 345 346
307 309 303 300 301 292 294 288 282 284 282 280 283 287 289 290 292 294 297 315 323 323 322 322 321 326 323 321 324 331 329 330 337 336 333 337 336 342 346 348 350 351 352 352 352 353 352 354 354 354 354 354 353 353 353 353 353 353 353 353 353 353 352 352 352 352 351 351 351 351 351 350 350 350 350 350 349 349 349 349 349 348 348 348 347 347 349 348 347 345 344 344 345 345 346 346 345
304 309 300 296 294 295 291 288 284 282 284 284 281 284 291 292 293 295 297 300 313 321 319 322 320 327 327 325 326 321 323 336 338 341 338 338 343 344 345 348 349 349 350 352 352 351 352 354 354 354 354 354 353 353 353 353 353 353 353 352 352 352 352 352 351 352 351 351 351 350 350 350 350 349 349 349 349 348 349 349 349 348 348 348 347 347 348 348 348 348 346 344 346 346 346 346 345
300 299 303 302 300 297 291 288 288 285 289 286 287 289 290 293 295 295 297 301 318 321 321 320 320 321 325 328 331 328 333 329 337 338 339 338 342 344 345 347 347 347 350 351 352 352 351 353 353 353 354 354 353 353 353 353 353 353 353 352 352 352 351 351 352 351 351 351 351 350 350 350 350 350 350 349 349 349 349 349 349 348 348 348 347 347 347 347 346 346 346 346 345 345 344 343 343
301 297 295 298 295 293 288 282 283 286 290 290 290 292 295 295 295 296 295 298 316 321 324 323 326 324 324 329 333 336 338 338 337 336 340 341 343 343 345 346 346 347 350 352 352 352 352 352 352 352 354 354 353 353 353 353 352 352 352 352 352 351 351 351 351 351 350 350 350 350 349 350 349 349 349 350 350 350 349 349 349 348 348 348 347 347 347 346 346 346 346 346 345 344 343 343 343
306 299 296 289 287 291 287 285 286 286 289 292 292 293 297 297 296 296 295 298 298 315 323 324 323 324 322 334 323 335 338 338 338 341 342 342 342 343 345 345 345 346 349 351 352 352 351 348 350 352 353 353 353 353 353 353 352 352 352 352 351 351 348 351 350 350 350 350 350 350 349 349 349 348 348 348 350 350 350 349 349 349 348 348 347 347 347 346 346 346 346 346 346 345 345 343 342
299 296 297 291 289 287 283 285 285 288 289 290 293 296 306 302 299 297 295 297 311 319 322 322 321 318 323 328 327 334 335 339 340 342 341 341 341 343 344 344 344 345 347 349 351 349 347 348 347 348 350 346 345 353 353 353 352 352 352 352 351 351 350 351 350 350 350 350 350 349 348 348 348 348 348 348 350 350 350 349 349 349 348 347 347 347 347 347 347 346 346 346 344 344 343 342 342
297 297 291 290 284 287 282 283 286 286 289 290 292 296 296 296 296 296 295 295 305 320 322 326 325 322 327 324 329 332 332 338 339 338 339 340 342 343 343 344 345 345 347 348 346 344 347 349 346 346 346 342 342 352 353 352 352 352 352 352 351 351 350 350 350 350 350 350 350 349 349 349 348 348 348 348 349 349 349 349 348 348 348 348 348 348 348 347 345 345 344 344 343 342 341 342 342
293 292 291 289 285 284 286 282 284 288 288 291 293 295 296 296 294 293 294 294 310 321 323 327 324 324 326 326 328 337 338 338 336 334 339 340 342 341 342 344 346 346 344 345 347 347 347 346 348 346 346 345 347 350 351 351 352 351 351 350 350 350 350 350 350 350 350 350 349 349 349 348 348 348 348 347 348 349 349 349 349 348 348 348 347 347 347 345 344 343 343 342 342 342 342 342 342
291 291 288 282 282 284 283 284 285 288 291 291 292 293 295 295 294 293 294 312 317 321 321 322 322 329 324 325 327 334 337 336 336 338 340 340 340 341 342 343 344 344 344 344 345 345 345 345 345 347 346 347 350 350 350 351 351 351 350 350 350 350 350 349 350 350 350 350 349 349 349 349 348 348 347 347 347 348 348 348 348 348 347 347 347 346 345 344 343 343 342 341 342 342 341 342 342
290 287 285 285 282 284 285 286 286 294 288 289 293 295 295 294 293 293 305 316 319 318 317 322 330 325 319 324 332 335 333 335 338 340 339 339 339 341 341 343 344 344 343 343 342 341 342 343 347 346 346 348 350 350 349 350 351 350 350 350 350 350 349 349 349 349 349 349 348 348 348 348 348 348 347 347 347 347 347 347 347 347 347 346 346 345 345 344 343 342 341 342 342 342 342 342 342
291 290 288 287 284 283 285 286 285 288 286 289 291 293 295 294 293 298 318 315 312 311 316 329 329 328 325 328 328 329 332 337 339 339 339 339 339 339 341 343 342 341 341 341 339 341 342 344 345 345 346 345 347 348 349 349 350 350 349 349 349 349 349 349 349 349 349 348 348 348 348 348 348 347 347 346 346 346 346 346 346 346 346 346 345 345 345 344 342 342 341 341 341 342 342 341 341
300 290 287 285 283 284 285 287 287 284 285 289 293 294 294 298 297 304 313 312 317 324 330 331 330 324 319 325 324 329 332 337 337 339 339 338 337 337 340 342 341 340 340 340 340 341 342 343 345 346 347 346 344 345 346 348 349 349 349 349 349 348 349 349 349 349 348 348 348 348 348 348 347 347 347 346 345 346 346 346 346 346 345 345 345 345 344 344 343 342 341 340 342 342 341 342 340
295 288 286 288 283 283 286 287 285 286 288 289 293 293 293 296 309 308 310 315 321 323 325 322 324 316 325 326 328 333 335 337 337 339 337 335 335 337 340 340 340 339 338 339 339 341 343 343 344 346 347 346 346 345 346 346 348 348 348 349 349 348 349 348 348 348 349 348 348 348 348 347 347 346 347 346 346 346 346 344 345 345 345 345 345 344 344 343 343 342 340 340 341 342 342 341 341
292 289 288 280 284 284 286 286 286 285 287 289 291 293 293 293 301 320 325 325 321 319 324 326 325 330 329 329 333 335 336 336 337 337 335 333 333 334 337 337 338 337 337 338 340 343 344 345 344 345 347 347 347 346 346 345 347 349 348 349 349 349 348 349 348 349 348 347 347 347 344 341 341 341 342 341 346 344 345 346 345 345 345 345 344 344 344 343 342 342 341 341 342 342 340 337 337
294 289 282 283 281 285 287 287 288 292 291 292 293 292 293 292 296 320 322 320 322 324 324 327 330 329 332 333 335 335 335 334 335 333 332 330 331 331 332 334 333 332 335 337 341 343 344 344 345 346 346 347 347 346 346 346 347 347 345 346 347 346 348 348 346 344 347 342 346 343 340 344 338 338 339 345 342 344 344 345 345 345 345 344 344 344 344 343 343 342 342 342 341 341 337 328 327
289 285 284 284 283 287 291 290 290 292 291 291 292 292 293 294 293 300 313 313 315 319 322 326 325 329 332 333 334 333 334 333 333 333 330 328 328 327 329 331 331 332 333 336 340 342 343 343 344 344 345 346 346 345 345 346 345 345 344 344 345 347 348 346 343 345 340 341 341 341 342 338 338 341 341 343 343 345 344 345 344 344 344 344 343 344 343 343 342 342 342 342 341 337 329 326 325
290 288 285 282 287 288 289 290 292 292 293 293 293 292 291 294 294 298 310 311 315 317 319 322 323 324 328 331 333 332 333 332 333 331 331 329 328 328 328 329 330 330 332 336 338 342 342 341 343 344 344 345 344 344 345 344 344 345 345 343 342 342 342 342 341 341 340 340 340 338 336 338 337 338 345 347 345 342 340 344 345 345 344 344 343 343 343 343 342 342 342 342 337 333 328 328 327
290 290 285 288 287 290 291 292 293 293 293 293 292 291 292 294 294 308 312 311 308 310 321 322 322 326 328 331 332 332 331 331 331 331 330 330 329 329 329 330 330 329 331 336 338 339 337 338 341 342 343 343 343 343 345 344 345 345 345 342 340 339 340 339 339 338 338 337 336 336 336 336 333 331 331 336 337 336 334 335 338 336 336 337 340 336 334 334 334 331 333 334 331 335 332 328 328
290 289 287 289 287 290 291 291 291 293 293 292 290 292 294 293 296 310 308 301 300 309 320 325 328 330 330 330 331 332 330 330 330 330 330 330 329 328 329 328 328 328 332 333 336 338 338 341 341 340 344 343 343 344 344 344 345 344 343 343 342 339 338 338 338 337 336 335 334 336 336 332 332 331 331 333 334 334 336 337 337 335 334 337 339 337 335 334 329 330 331 332 332 332 332 331 329
290 288 288 288 290 292 291 293 291 291 292 292 291 294 294 292 294 295 298 301 298 303 321 328 330 332 333 333 332 330 330 329 329 329 330 329 329 329 329 329 328 329 331 333 335 337 339 340 341 343 343 344 344 345 344 344 344 344 344 343 341 339 337 338 339 336 335 334 334 336 333 331 331 329 330 330 332 332 334 336 337 334 333 335 340 337 337 336 331 331 331 331 328 331 331 329 327
291 289 287 292 290 292 291 293 293 291 291 292 292 292 293 292 293 300 313 318 320 322 328 330 331 334 334 331 331 330 330 329 329 330 331 330 330 329 329 328 328 329 331 332 334 336 338 340 342 342 343 343 342 344 344 343 343 343 343 344 341 341 339 338 339 336 335 333 334 335 335 331 331 329 329 330 332 332 333 335 335 335 334 334 338 337 336 334 334 333 332 330 330 329 329 328 327
290 289 289 291 291 290 291 291 289 289 290 292 292 292 294 292 292 310 315 323 324 326 329 329 331 333 332 331 331 331 331 331 330 330 331 331 331 329 327 326 326 328 330 329 331 334 338 341 343 342 342 342 342 343 342 342 343 342 341 338 338 344 338 338 338 336 334 332 333 335 335 330 328 328 328 329 330 330 332 333 334 334 332 331 335 333 332 332 333 333 332 330 328 327 327 327 328
289 292 291 289 291 291 291 290 289 289 290 291 292 290 292 296 307 313 315 325 327 328 327 329 331 330 330 330 330 331 330 330 330 329 330 331 331 330 328 327 327 328 329 330 332 334 337 342 342 341 342 342 342 342 341 341 342 341 340 339 339 343 335 335 337 335 333 332 331 333 334 330 329 328 328 328 330 329 330 330 332 331 331 330 332 332 331 331 331 330 330 329 329 327 328 327 328
289 289 290 290 292 291 291 291 289 290 290 289 291 289 290 292 304 295 314 327 328 327 327 329 329 329 329 329 330 330 329 329 329 330 330 330 329 329 328 327 328 328 330 331 334 336 339 341 341 341 341 342 342 341 340 340 342 341 340 338 339 337 333 335 335 334 332 332 332 332 331 331 329 328 328 327 330 329 329 329 329 329 329 329 330 330 331 332 330 331 330 330 329 327 328 327 327
290 291 292 291 290 289 290 289 290 290 291 289 292 290 290 294 305 298 318 327 328 326 326 327 328 328 328 328 328 328 328 329 330 329 326 326 326 328 327 327 327 328 329 332 335 338 339 340 341 341 341 342 340 340 340 339 340 340 339 339 339 336 335 333 333 333 335 332 331 330 330 330 330 328 328 328 329 328 328 328 328 329 329 329 330 329 329 331 331 330 331 330 329 328 327 325 326
293 293 291 287 287 290 288 289 289 289 291 289 291 292 289 291 293 298 323 328 328 326 325 326 327 327 328 328 326 326 326 327 327 327 327 328 328 328 326 328 328 328 329 331 335 338 338 337 339 339 341 341 339 339 339 339 339 340 339 338 338 337 335 332 331 332 332 331 330 330 329 330 330 328 327 328 332 329 329 327 327 330 330 330 329 330 331 330 331 330 327 330 327 326 326 326 327
294 290 288 288 285 285 288 289 289 289 293 289 292 283 283 285 287 298 327 327 326 325 324 325 326 326 327 326 325 325 325 325 325 325 328 327 326 326 325 327 329 328 328 330 335 336 337 337 338 338 339 338 336 337 337 337 337 337 338 336 338 336 334 331 331 328 330 330 331 330 330 331 329 328 328 328 329 327 327 327 327 326 329 330 329 330 328 328 329 329 327 327 331 325 325 325 326
290 289 286 284 283 283 287 288 291 291 291 290 293 285 283 283 288 313 327 327 324 321 323 324 325 325 325 325 324 324 324 325 324 325 325 324 322 324 324 326 326 327 328 329 332 333 335 336 337 337 339 335 337 335 335 334 334 336 335 335 336 335 334 332 331 330 330 329 329 329 329 330 331 329 329 328 327 327 326 325 325 327 329 331 330 329 327 326 327 327 326 325 325 326 326 327 326
285 286 281 280 284 282 286 291 289 290 292 290 292 285 285 286 294 322 327 326 324 321 323 324 324 324 324 324 323 323 324 324 324 323 322 321 321 322 323 323 324 325 328 328 330 330 332 333 337 336 336 333 334 334 331 331 331 332 333 335 333 334 334 333 332 332 332 331 330 328 330 331 329 329 329 328 327 326 326 324 325 327 329 330 331 330 327 326 326 326 326 325 325 326 326 324 324
282 284 278 284 284 282 287 290 288 290 292 292 291 282 287 291 300 321 326 325 323 321 322 323 323 323 323 322 323 323 322 322 323 323 321 321 320 322 322 323 324 325 326 327 329 330 331 331 336 334 333 333 330 330 328 328 327 328 331 332 330 331 330 331 331 330 331 331 330 328 328 332 329 328 328 328 326 327 326 326 326 327 329 330 329 327 327 327 327 326 324 326 326 325 325 324 324
279 282 283 282 286 285 284 288 292 289 291 289 290 285 286 289 303 320 325 325 323 321 321 322 322 322 322 322 322 322 322 321 321 321 320 320 321 321 322 326 324 324 326 328 328 331 331 330 332 333 333 331 328 327 326 326 325 327 327 329 331 327 327 328 329 330 329 329 329 327 327 330 329 327 327 327 326 327 327 328 327 327 329 329 327 327 327 327 326 325 323 324 325 325 324 324 324
280 281 280 282 284 284 286 286 289 292 290 288 288 287 286 286 295 319 324 325 323 321 322 322 322 322 321 321 321 321 322 321 321 321 320 320 320 321 322 324 324 323 325 324 325 327 329 329 329 331 329 326 325 324 326 324 323 323 323 323 322 323 325 325 327 328 326 326 326 327 328 330 330 327 327 328 326 331 330 328 326 328 329 326 325 324 324 325 325 324 324 323 325 324 324 324 324
283 284 284 283 284 284 286 288 290 292 288 286 286 286 286 288 304 318 322 324 322 321 323 322 322 321 321 321 321 321 321 321 320 318 319 320 320 321 321 323 323 323 323 323 323 324 325 325 325 325 324 323 323 324 325 323 323 322 321 321 321 322 321 325 323 324 324 323 325 326 327 326 329 327 325 326 328 330 329 328 326 328 328 327 324 323 323 324 324 323 324 324 323 324 325 325 325
286 285 286 285 284 286 287 288 292 290 289 286 285 285 285 291 305 317 321 321 320 320 320 319 320 320 320 320 321 321 321 320 317 317 319 320 320 320 319 319 321 321 322 322 322 322 323 324 324 323 321 322 323 323 323 322 320 317 316 318 318 317 321 320 320 317 322 322 324 324 326 325 326 327 326 324 325 331 326 325 325 326 326 326 324 322 323 324 324 324 324 324 323 321 323 323 324
288 286 286 284 284 283 288 288 289 292 289 285 285 285 288 294 303 317 318 317 317 318 318 318 319 320 320 320 320 320 320 315 315 315 317 318 319 319 319 318 319 320 320 321 321 321 322 323 324 322 320 321 322 323 324 322 318 319 317 317 314 316 319 318 317 315 317 320 321 322 325 324 324 325 327 325 328 326 325 324 323 324 325 324 324 324 324 326 325 324 323 322 322 321 320 323 321
287 286 284 285 283 285 287 288 290 292 291 285 286 286 287 293 302 313 315 317 318 319 318 318 318 318 319 320 320 319 317 315 313 315 316 318 318 318 318 318 319 321 321 320 320 320 320 321 322 320 320 320 319 321 322 320 315 317 315 314 318 313 313 315 315 318 318 314 314 315 317 318 324 324 325 327 327 327 326 325 323 324 324 326 324 324 326 325 325 323 321 321 319 320 321 322 320
285 283 283 283 283 285 282 286 289 292 290 287 285 288 288 289 293 304 310 313 305 308 310 312 317 318 319 319 320 317 317 313 312 314 315 316 317 316 316 317 319 319 320 319 319 320 319 320 319 319 318 316 317 320 321 316 318 316 315 315 313 313 315 317 314 314 313 313 313 313 315 314 320 323 325 328 328 326 324 324 326 326 324 325 324 324 324 324 323 322 322 321 319 317 316 317 321
285 286 281 282 285 284 285 287 288 289 292 288 286 284 284 285 297 299 305 303 302 306 310 308 311 316 317 317 318 317 315 313 312 312 314 315 316 316 317 317 316 318 319 319 319 319 320 318 318 318 316 315 316 320 318 318 317 315 314 315 316 314 314 312 312 312 312 317 314 312 311 312 317 321 323 325 326 323 323 325 326 326 326 326 327 326 325 324 324 322 321 321 319 318 318 317 319
283 285 288 286 284 288 287 286 287 279 284 289 284 276 281 283 284 293 298 300 302 302 307 308 310 311 313 313 314 313 314 313 313 312 313 314 315 315 315 317 317 318 319 319 320 320 318 317 318 316 314 315 316 316 318 319 318 316 315 314 312 310 310 310 309 310 309 309 310 311 309 310 312 314 316 320 323 322 320 321 323 324 325 326 326 326 326 326 323 323 322 322 320 321 320 317 317
283 286 288 288 286 287 287 288 285 280 281 288 287 280 277 278 287 289 289 293 299 300 304 307 308 310 310 311 311 313 313 312 310 310 313 314 314 315 316 317 318 318 319 319 319 318 318 318 317 316 315 315 315 316 318 319 316 316 317 316 315 313 312 308 307 308 309 310 309 308 307 309 309 311 313 316 317 318 316 317 319 321 322 324 325 325 326 326 325 324 324 322 322 322 320 316 317
282 286 287 287 287 288 288 285 284 282 284 289 285 281 282 283 285 286 288 291 293 297 300 303 307 309 310 310 311 312 313 313 312 311 313 314 314 316 317 318 318 319 319 319 319 318 317 317 317 316 316 316 314 316 317 318 317 315 314 313 313 311 311 310 310 310 310 310 307 307 307 307 309 310 312 313 315 316 315 314 317 319 321 323 325 323 323 323 323 323 323 322 321 321 319 318 317
285 289 287 287 288 287 286 285 282 283 283 282 281 285 281 279 281 286 289 290 291 295 299 301 304 306 309 309 310 311 313 313 313 311 312 314 315 316 317 318 318 318 319 320 319 319 317 317 317 315 316 315 313 315 317 316 318 316 315 313 312 310 310 312 313 312 309 308 306 305 307 307 308 309 311 312 313 316 318 315 316 317 318 319 322 319 320 319 319 319 318 318 318 316 318 317 317
289 289 288 288 288 288 285 281 285 280 280 277 282 284 281 277 277 283 286 287 286 291 295 300 303 305 307 308 309 311 312 312 312 312 312 314 314 316 316 317 318 318 318 319 318 317 316 316 316 316 314 313 313 314 316 315 315 315 313 312 311 311 313 311 310 308 306 305 305 305 305 306 307 308 309 310 311 312 313 315 314 315 315 317 318 314 312 312 312 313 313 314 314 313 312 316 316
290 287 286 285 283 282 282 281 281 280 274 276 280 282 281 279 278 285 285 287 286 286 288 289 297 303 305 307 309 311 311 312 312 311 312 313 313 314 316 318 318 316 316 317 318 317 315 315 314 314 312 311 312 313 314 314 313 314 313 312 311 311 311 311 309 306 305 305 305 305 305 305 306 307 310 309 310 311 313 315 312 312 315 317 313 310 310 309 309 310 309 309 308 309 309 309 310
289 285 282 284 282 280 280 277 278 274 272 276 279 281 283 280 279 283 285 288 288 289 290 291 291 300 303 305 308 311 311 311 311 311 311 311 311 312 314 315 315 315 315 316 316 317 315 314 314 314 311 311 311 312 312 313 313 312 313 312 312 312 312 312 310 307 305 305 304 305 304 305 305 306 307 309 309 310 311 310 311 310 310 309 309 309 309 308 308 307 307 307 306 306 308 309 307
286 284 283 279 276 272 276 274 276 274 274 284 281 282 283 280 279 286 288 290 291 291 291 293 292 292 298 304 307 310 310 310 311 311 310 310 311 312 314 314 313 313 317 317 317 316 315 314 314 314 312 310 311 311 311 311 311 312 312 312 312 313 312 312 310 308 305 305 305 305 304 304 304 306 306 307 307 307 309 308 308 309 309 310 308 307 307 307 307 306 306 305 305 305 305 306 305
284 284 279 277 272 268 269 269 270 276 279 281 282 284 280 280 285 288 289 292 293 293 295 293 292 293 295 303 306 309 309 310 310 310 309 309 309 310 311 313 316 316 316 318 317 317 316 315 314 314 313 310 310 310 310 311 311 312 312 312 313 314 312 312 311 310 308 308 307 306 305 305 305 305 305 306 306 307 307 308 308 307 307 307 307 307 307 307 306 305 305 305 304 304 304 304 303
285 283 285 282 275 273 268 273 270 275 276 279 282 282 279 281 283 290 292 293 297 299 301 300 300 298 300 304 306 306 306 305 307 307 308 310 311 311 312 313 315 315 316 316 317 317 316 315 314 314 312 310 310 310 311 311 313 314 314 315 315 314 313 313 312 313 310 309 308 306 304 303 305 304 305 306 308 305 306 306 307 306 306 307 308 308 308 307 308 307 306 305 305 304 304 304 303
283 283 284 282 280 278 279 275 276 276 277 277 282 279 281 282 288 291 291 294 298 300 301 303 302 303 303 304 305 305 307 308 309 309 311 311 311 310 312 314 314 315 315 315 316 316 316 315 314 313 312 310 310 311 312 313 315 315 315 314 314 316 316 314 313 313 311 310 309 307 305 304 304 305 305 306 306 306 306 307 307 305 305 306 307 306 306 306 306 306 305 304 305 307 303 303 303
284 284 282 282 284 284 275 275 278 273 274 274 273 280 281 283 288 290 289 295 296 298 299 301 301 302 303 303 305 307 309 309 309 310 311 312 313 312 314 314 314 315 315 315 316 316 316 314 313 312 311 311 312 313 314 314 315 314 314 314 314 314 314 314 314 312 311 310 309 307 306 305 305 305 307 309 306 306 306 306 306 305 305 305 306 306 306 305 305 306 304 304 304 304 305 303 303
284 281 283 287 288 287 281 275 271 268 269 271 276 277 277 277 278 286 290 291 293 297 297 298 300 301 303 303 304 305 306 307 308 310 310 312 314 313 314 313 314 314 314 313 314 313 314 314 314 313 312 312 313 314 315 314 314 314 314 314 315 314 314 314 314 313 312 310 308 307 306 306 306 307 308 310 306 306 306 311 305 305 305 305 306 305 305 304 305 304 304 304 304 305 305 304 305
284 283 288 286 280 280 279 277 269 271 270 270 276 277 277 278 280 283 287 287 290 295 295 298 299 300 301 303 305 306 308 308 308 309 309 309 309 311 311 311 312 312 312 311 311 313 313 313 314 313 312 313 314 315 316 316 316 315 315 315 315 314 314 315 315 314 312 311 309 308 307 307 306 308 311 308 306 306 307 305 305 305 305 306 305 305 305 304 304 304 306 305 304 304 304 303 304
286 288 286 285 282 279 278 275 278 276 268 267 274 275 275 282 279 287 287 287 288 290 295 296 297 299 301 300 302 305 306 307 308 309 309 307 307 309 309 309 310 309 309 310 311 312 312 313 313 313 315 316 316 315 316 315 316 316 315 316 315 315 315 315 315 314 313 312 310 309 308 307 308 310 308 307 306 307 307 306 305 305 306 305 305 305 305 304 305 306 306 305 304 304 304 304 304
284 282 280 282 281 283 282 282 280 275 269 265 269 270 275 280 284 288 289 289 290 290 294 294 296 299 300 301 302 303 304 305 305 306 306 307 306 305 305 307 309 309 309 308 308 309 311 312 313 313 314 315 315 314 313 314 316 316 316 315 315 315 315 315 315 315 315 313 312 311 309 309 309 309 309 308 307 307 307 307 306 308 306 306 306 306 305 305 306 305 305 305 303 304 303 303 305
282 281 282 280 279 281 278 275 280 277 275 269 269 267 275 283 290 291 290 291 291 291 293 295 297 297 297 299 301 302 305 304 305 304 304 305 305 305 306 306 307 307 307 307 307 309 310 311 312 313 314 314 314 314 314 314 316 316 315 315 315 314 315 315 314 313 312 311 312 310 309 309 309 310 310 310 308 307 307 306 306 306 305 306 306 306 305 305 306 305 305 306 304 304 303 303 304
Wind_Speed
2 2 1 3 2 2 1 3 3 2 2 4 2 1 2 0 1 3 4 4 2 1 0 2 2 3 2 3 8 7 2 5 3 8 6 1 2 7 8 10 11 11 12 9 9 9 10 13 15 15 14 16 17 16 15 16 16 16 16 15 14 15 15 16 16 16 17 17 17 17 16 16 16 16 15 15 14 15 15 15 14 16 18 18 18 18 17 16 14 13 12 12 12 12 12 13 13
2 0 0 2 1 2 2 1 3 1 4 2 7 2 3 1 0 1 6 5 3 2 3 6 7 8 11 12 10 5 5 5 3 1 2 4 9 7 7 9 9 11 10 9 8 8 9 10 14 15 15 16 15 16 15 15 16 16 16 15 15 14 15 14 15 15 15 15 15 16 16 16 15 15 14 14 14 14 14 14 15 15 16 17 17 17 16 15 14 14 13 12 12 12 12 13 14
1 1 2 2 3 2 2 3 1 0 3 2 8 6 1 0 1 2 5 5 1 4 1 2 1 3 3 3 5 2 1 2 5 3 4 5 8 3 8 8 9 9 10 8 8 9 8 10 14 15 16 15 15 16 16 16 15 15 15 15 15 15 14 14 14 14 14 14 15 15 15 15 15 15 14 14 14 14 14 14 14 14 14 16 16 16 16 16 16 14 13 12 13 13 13 14 14
1 1 4 3 1 3 2 3 4 7 3 6 4 6 4 3 1 2 4 2 4 2 0 4 5 3 2 7 3 5 6 3 4 4 5 5 2 7 8 10 10 9 9 7 7 7 7 12 15 15 16 14 14 15 15 16 16 15 14 14 14 14 13 14 14 14 14 14 14 14 14 15 15 14 14 14 13 13 13 13 13 14 14 15 15 15 15 15 16 15 14 13 13 13 14 15 15
2 0 2 2 5 0 2 1 4 3 4 5 3 3 3 2 2 1 4 5 3 3 3 2 3 5 2 4 0 2 0 6 6 4 5 4 8 8 9 10 10 10 9 8 7 6 6 14 13 12 13 14 14 13 14 15 16 15 15 13 13 13 13 13 14 13 14 13 13 13 14 14 14 14 14 13 12 13 13 13 11 11 12 15 15 14 15 15 14 15 15 13 13 13 14 14 13
3 1 3 2 1 2 5 1 0 4 5 4 1 3 3 3 2 1 4 4 3 0 1 3 2 1 5 5 3 3 5 2 1 4 2 5 10 9 8 7 9 9 8 7 7 7 8 14 12 12 12 13 14 14 14 14 15 14 14 14 13 13 12 12 12 13 13 13 13 13 13 13 13 13 13 12 11 12 12 11 10 12 14 15 14 13 14 13 13 14 14 13 13 13 13 12 12
2 3 3 3 2 3 5 3 4 6 6 5 2 7 5 3 3 2 3 4 0 3 1 2 4 3 4 1 3 4 5 2 1 2 5 8 9 8 7 7 9 9 7 6 6 7 10 14 13 12 11 12 13 14 14 14 13 14 15 14 13 12 12 12 11 12 13 13 13 13 13 13 13 12 12 11 11 11 11 11 12 13 13 13 13 13 12 12 12 13 14 14 12 12 12 11 10
1 2 1 2 1 1 1 2 5 3 3 5 3 5 9 7 3 1 1 0 2 2 1 5 4 5 1 3 3 3 9 6 8 11 13 8 8 8 8 7 11 9 7 6 6 7 13 13 13 12 12 10 11 11 14 13 13 14 14 13 12 12 12 12 12 11 10 12 12 13 13 13 13 12 11 11 11 11 11 12 13 13 13 13 13 12 11 11 11 12 13 13 12 11 10 10 10
3 4 0 5 1 2 1 3 4 3 6 3 7 7 11 9 4 2 2 4 0 1 5 2 3 3 1 5 3 3 4 9 10 12 12 10 8 8 7 8 11 10 9 7 6 7 8 14 12 11 14 12 3 11 11 13 13 13 13 12 12 10 10 11 11 11 10 10 11 12 13 12 12 12 11 11 10 11 11 12 13 14 13 13 12 12 11 10 10 10 11 11 10 10 10 10 9
2 1 2 2 4 2 2 6 1 4 3 4 3 8 9 5 4 4 4 2 5 5 1 4 4 7 7 7 4 4 3 9 11 11 9 9 8 8 9 8 10 10 8 8 7 5 5 12 14 12 16 16 14 10 10 11 12 12 12 12 11 10 9 10 10 9 9 10 10 10 11 11 11 11 11 10 10 10 11 11 12 13 12 12 12 11 11 10 9 9 9 9 9 9 10 10 9
0 4 2 4 2 2 4 5 2 5 3 4 7 9 10 6 4 3 6 3 5 7 4 8 8 11 5 4 3 4 7 11 12 12 8 9 8 10 10 9 10 10 9 7 8 8 7 5 14 13 13 16 14 11 11 9 10 11 10 10 10 10 10 10 9 9 9 9 10 10 10 11 11 11 11 10 10 10 10 11 10 11 11 11 11 10 10 9 8 8 7 7 8 8 8 8 9
1 0 1 3 3 8 5 2 2 6 7 2 3 4 1 5 2 0 3 6 4 5 5 3 7 9 8 5 3 4 8 9 10 9 9 8 9 9 9 8 10 10 9 9 9 8 8 8 8 11 12 11 11 11 11 11 10 11 10 9 9 9 9 9 9 8 8 8 8 9 9 9 10 10 10 10 9 9 10 10 10 10 10 10 10 10 10 8 8 7 6 6 7 8 7 6 7
3 1 5 4 3 1 1 1 1 3 4 3 2 5 3 5 5 2 3 7 4 7 1 3 14 3 4 3 4 7 9 10 9 9 8 8 8 7 7 8 9 9 7 8 10 9 10 7 8 9 9 13 11 10 10 10 11 11 10 9 9 10 10 10 10 9 8 8 8 8 8 8 9 10 10 9 9 9 9 9 9 9 9 9 9 9 9 8 7 6 5 6 7 7 7 6 6
4 6 6 3 1 3 2 1 0 1 4 3 2 5 6 3 3 1 9 8 3 2 1 7 6 5 7 6 6 5 8 10 9 9 9 9 7 7 8 7 8 7 7 8 9 9 9 10 10 11 11 7 6 11 12 12 12 11 11 10 10 10 10 10 9 8 7 7 8 8 8 8 9 9 9 9 8 9 9 9 9 9 8 9 9 9 9 8 7 6 5 5 6 7 7 6 6
0 2 3 3 1 1 1 1 1 3 2 1 3 6 9 3 0 5 6 6 4 0 4 4 3 0 5 9 5 6 10 13 10 13 11 9 9 8 8 7 6 6 5 6 6 7 7 7 9 10 9 9 7 6 6 10 13 13 11 11 10 10 10 10 10 8 8 7 7 8 8 9 9 9 9 8 8 8 9 9 8 8 8 8 8 8 8 8 7 6 5 5 7 7 7 7 7
3 4 3 2 1 3 2 1 1 3 4 1 3 6 5 5 5 3 2 2 3 2 3 2 3 1 2 6 6 13 14 11 12 12 11 11 9 7 8 8 7 4 3 3 4 3 5 3 5 8 9 10 9 6 8 8 12 14 13 11 11 12 12 11 10 8 9 8 8 8 8 6 7 7 10 7 8 8 8 6 8 7 7 7 7 7 7 7 6 5 5 5 6 7 8 8 8
2 4 0 1 3 3 2 2 4 2 4 3 4 6 6 4 4 3 3 5 10 2 3 4 2 2 6 2 14 15 12 12 12 14 11 9 8 9 9 7 7 5 2 3 3 5 5 5 4 3 7 9 9 9 8 9 10 14 11 12 12 12 11 11 10 10 9 8 7 6 5 4 4 3 5 3 7 4 5 7 7 7 6 6 6 6 6 5 5 5 5 5 6 7 8 8 7
1 2 4 2 3 4 4 4 6 1 1 5 7 2 4 4 3 1 5 8 5 7 7 4 10 8 7 11 15 14 13 13 12 14 12 10 8 9 9 7 7 7 5 4 4 5 6 5 6 5 5 8 8 7 6 7 8 11 7 7 7 8 9 9 7 4 6 3 7 5 4 4 4 4 3 5 3 4 4 6 6 6 6 5 5 4 4 4 4 4 5 5 6 6 7 4 4
2 1 2 6 4 3 6 3 5 0 3 4 5 4 1 2 4 2 3 0 2 6 5 6 10 11 12 13 13 14 13 13 13 13 14 13 10 12 9 9 7 7 7 4 5 6 5 6 6 7 6 6 6 5 5 6 7 6 6 6 5 7 6 6 4 4 4 4 4 4 4 4 4 4 3 4 3 5 3 5 5 5 4 4 4 4 4 2 3 3 4 5 6 7 4 3 4
2 4 4 2 6 2 3 5 4 5 2 7 8 4 5 6 0 0 3 4 3 6 6 5 10 14 14 12 14 14 12 12 13 12 13 13 11 11 10 10 9 8 8 6 7 5 4 4 5 7 9 6 4 4 4 5 5 5 5 5 5 4 4 4 4 4 4 4 5 4 4 4 3 3 5 7 6 3 2 4 5 4 3 3 3 3 2 2 2 3 3 6 4 3 2 2 4
1 1 3 1 4 2 5 5 8 6 1 3 3 4 6 5 0 2 7 7 1 3 6 9 13 16 14 13 14 14 12 11 12 12 12 12 10 7 8 9 8 8 7 4 4 4 2 3 4 4 4 4 4 4 4 4 5 5 5 4 4 4 3 3 4 4 3 4 4 4 4 3 3 3 3 4 4 3 3 3 3 4 3 3 4 2 2 2 3 3 4 4 2 2 3 3 3
2 5 3 2 3 0 5 6 6 3 3 0 3 4 4 3 1 3 7 3 3 7 10 7 14 17 17 16 13 12 11 12 11 12 14 13 13 11 7 5 3 3 4 4 5 5 4 4 5 5 5 6 5 4 4 6 7 5 5 5 5 4 4 3 3 4 4 4 4 4 4 5 4 4 4 4 4 3 3 3 3 2 3 2 2 2 2 3 2 3 3 2 2 1 1 1 2
3 3 2 4 3 1 2 1 3 2 2 2 1 2 3 1 2 0 1 1 3 3 3 11 17 17 13 14 14 13 14 13 12 13 13 12 11 9 9 7 7 7 5 4 5 4 5 4 5 4 5 5 5 5 5 4 5 4 4 5 5 4 4 4 4 4 4 4 4 4 5 4 5 4 4 3 3 3 4 3 3 3 3 3 2 0 1 2 2 2 2 2 1 2 2 2 2
2 3 1 4 3 5 5 3 3 3 3 6 2 3 3 2 1 0 1 4 5 3 7 13 15 16 13 15 14 17 15 14 13 13 11 12 12 12 10 9 4 4 5 5 5 5 6 5 4 7 5 5 5 6 5 4 4 5 5 6 5 6 5 5 4 4 4 4 4 4 4 5 5 5 4 4 3 3 4 4 3 3 3 3 2 1 2 1 2 2 2 2 2 2 3 3 3
2 2 1 4 2 4 5 4 5 4 7 6 3 4 9 5 3 3 1 3 3 5 9 13 15 15 11 13 14 14 13 11 9 9 7 7 6 4 4 5 4 5 6 4 3 5 4 5 5 7 7 6 5 6 5 4 5 4 5 4 5 7 5 5 4 4 4 3 3 4 4 5 4 4 4 3 2 2 3 3 3 4 3 3 2 2 3 2 1 2 3 2 2 3 3 3 3
4 7 1 3 3 5 5 5 6 6 4 3 1 7 9 2 4 1 3 2 3 7 10 12 15 14 13 13 14 15 12 12 10 10 11 7 6 7 5 5 5 5 4 4 4 3 2 6 6 5 6 6 5 6 4 5 5 5 4 4 5 6 5 4 5 5 4 4 4 4 3 4 4 5 4 3 4 3 3 3 3 4 3 3 3 2 2 3 1 1 2 3 3 3 3 3 2
4 4 4 4 7 3 3 3 4 1 4 4 5 4 4 1 1 4 0 8 8 10 11 11 15 11 10 11 11 11 11 12 13 8 7 7 6 8 6 5 5 6 6 5 4 5 5 6 6 7 6 7 5 5 6 5 5 5 6 5 5 4 4 4 4 4 4 4 4 3 4 4 3 4 4 3 2 2 2 3 3 2 2 1 2 2 1 2 2 2 2 3 3 3 3 3 3
3 3 1 5 4 3 5 2 10 1 4 8 8 5 2 1 1 5 4 8 10 13 13 14 9 8 9 10 10 8 8 7 6 7 9 9 8 6 6 5 6 6 6 6 5 4 6 6 7 6 6 7 7 7 7 6 6 6 7 5 5 3 5 4 4 4 5 4 4 3 3 3 3 3 4 3 3 3 3 3 3 2 1 0 1 2 2 2 2 1 1 2 3 2 3 3 2
2 1 3 6 6 4 1 4 3 6 4 7 6 0 1 0 4 3 6 10 10 10 13 12 11 8 9 10 8 7 8 6 6 6 7 5 3 2 5 5 7 6 4 6 6 6 6 6 6 6 6 7 7 8 7 7 5 6 5 6 4 3 3 3 3 3 3 4 5 1 2 2 2 3 3 3 3 4 4 3 3 2 1 0 1 2 2 1 1 2 1 0 1 3 2 3 3
1 2 1 4 6 4 3 1 1 4 2 6 6 3 6 6 7 4 11 11 10 11 11 12 9 9 9 9 7 7 5 6 6 5 5 5 4 5 6 6 7 6 6 5 7 7 5 4 4 4 6 6 6 6 6 5 5 4 4 3 4 4 4 3 3 2 2 3 5 6 4 2 3 2 3 2 2 3 4 3 5 3 1 0 1 2 2 2 2 2 2 3 3 3 2 2 4
1 1 4 0 2 2 3 2 0 3 2 7 1 4 7 4 6 4 10 14 16 13 12 13 10 10 10 8 7 6 5 4 5 5 3 3 4 5 7 6 7 7 6 6 8 7 6 6 6 5 6 6 6 5 6 5 4 4 4 4 3 3 3 3 2 1 3 3 4 5 3 2 2 2 3 3 3 3 3 6 5 3 3 1 2 3 4 3 3 4 3 4 5 4 4 4 3
2 1 3 3 2 4 10 3 4 5 1 3 2 4 8 6 7 9 11 10 11 12 13 12 9 10 10 8 6 6 5 3 3 4 3 3 4 6 7 6 6 7 8 8 7 6 6 6 7 7 6 7 6 5 4 4 4 4 3 4 2 3 2 1 1 1 0 2 4 5 5 5 4 3 3 4 4 3 4 6 4 4 2 2 2 2 2 3 3 4 3 5 5 4 3 4 4
5 2 3 0 0 3 5 0 4 6 0 0 6 4 1 3 6 6 8 12 11 10 11 10 8 9 9 5 6 6 5 4 4 5 4 5 5 6 6 7 6 7 7 8 10 9 7 6 8 8 8 8 5 4 5 4 4 3 3 3 2 2 2 2 1 1 1 1 2 3 4 5 5 4 2 2 3 3 4 5 5 3 4 2 2 2 1 1 4 4 4 2 3 5 5 4 4
2 2 1 1 0 1 1 9 2 1 3 2 1 2 5 3 0 7 9 10 8 8 10 10 9 7 6 4 4 5 5 6 8 6 6 5 6 7 7 7 7 6 6 7 6 9 7 4 4 6 6 5 5 5 5 4 4 4 4 3 3 2 2 2 2 2 2 2 2 2 3 2 3 5 4 2 2 2 4 4 3 4 4 3 3 2 1 2 3 3 3 3 3 4 4 5 5
1 1 2 2 1 2 4 0 2 2 2 4 1 3 5 5 1 7 11 11 10 9 10 11 13 11 8 5 6 6 6 7 9 4 5 4 4 5 7 8 7 6 5 5 5 4 5 7 6 4 5 5 5 6 6 5 5 4 4 4 3 2 1 2 2 2 2 3 3 3 3 4 3 3 3 3 3 3 3 3 3 5 4 4 4 3 3 3 3 3 4 3 3 3 4 5 5
3 2 2 2 1 3 2 6 4 2 2 5 5 6 6 5 2 7 8 9 9 10 8 5 3 6 6 7 7 6 7 9 3 3 4 4 4 4 4 5 6 6 5 6 6 6 6 4 4 3 4 5 5 6 6 5 4 4 4 3 3 2 1 2 1 2 2 3 3 2 2 2 1 2 2 3 3 4 3 2 3 3 3 4 4 4 3 3 4 4 4 5 4 3 4 3 5
3 2 2 3 2 6 4 5 7 2 1 4 6 5 5 6 8 11 11 8 6 7 8 7 6 7 7 7 9 8 8 8 2 4 5 5 6 5 3 3 4 5 6 7 7 6 7 8 7 7 5 6 7 7 6 6 5 3 2 2 3 2 3 2 1 1 2 3 3 4 3 3 3 3 3 3 3 4 3 3 3 3 2 3 4 4 5 5 4 4 4 4 3 3 2 2 3
1 0 0 5 2 4 5 3 4 1 4 0 2 5 7 5 3 8 8 8 10 11 9 8 8 8 7 8 9 10 7 1 3 3 4 5 6 7 5 4 4 7 5 7 8 7 6 6 8 7 5 6 6 7 7 5 3 4 5 4 2 2 2 2 0 0 1 2 2 2 3 3 3 3 3 3 3 3 4 3 3 3 3 3 3 3 4 5 4 4 5 4 3 2 1 1 1
2 1 1 1 6 5 9 4 2 2 1 1 1 5 2 1 2 4 11 14 8 9 9 7 7 8 7 8 9 7 5 6 4 4 5 6 6 6 6 5 5 6 7 7 6 6 5 7 6 6 6 6 6 6 7 6 3 2 3 4 5 3 1 1 1 1 2 4 4 4 4 2 3 2 2 3 3 3 4 4 3 3 3 3 3 3 4 5 3 4 5 4 3 1 2 1 2
3 3 1 4 3 2 4 4 1 5 3 0 3 7 1 3 1 2 2 2 1 2 3 4 6 8 10 10 8 7 8 7 7 7 6 5 5 5 4 5 7 5 5 5 5 7 6 6 5 6 5 4 6 6 6 3 5 5 6 6 4 3 4 3 3 3 3 4 5 4 4 4 3 3 3 3 2 2 3 4 4 3 2 3 4 4 5 5 4 4 5 4 5 3 1 1 5
1 5 3 2 2 3 5 4 5 3 1 5 6 6 2 5 2 3 5 1 1 2 5 3 4 4 3 3 4 6 8 7 6 5 6 7 7 6 6 4 3 5 6 7 7 7 6 6 6 7 7 6 6 7 7 7 7 7 6 6 5 5 4 4 4 3 3 3 3 5 4 3 4 5 4 4 4 4 3 3 3 3 3 3 3 4 4 4 5 4 5 5 2 3 1 2 4
1 6 9 8 3 2 3 3 3 3 1 4 1 3 1 4 5 6 2 1 5 1 5 5 5 6 5 7 7 4 5 5 7 5 4 4 4 4 4 4 5 5 6 6 5 6 5 6 6 5 5 6 7 7 7 7 7 8 6 6 5 4 3 3 3 2 2 3 3 0 3 5 4 4 4 4 4 4 4 4 4 4 3 2 1 2 3 4 3 4 4 5 4 4 3 2 3
2 4 8 6 4 2 1 1 2 1 3 1 1 4 1 5 2 2 1 3 5 1 2 4 6 7 7 7 6 7 7 5 3 3 4 6 6 6 5 7 7 7 6 5 5 5 6 7 7 7 8 6 5 6 6 6 6 6 7 7 6 7 7 1 0 0 3 2 3 5 4 4 4 5 4 4 4 3 4 4 5 5 4 3 3 3 3 4 4 4 4 5 4 3 3 4 5
2 2 4 4 4 2 3 5 2 1 1 3 5 3 6 1 2 2 2 1 3 5 5 5 7 7 8 6 6 6 7 6 6 6 6 6 6 9 10 8 7 7 6 6 6 5 7 8 7 7 6 6 5 6 7 7 9 6 6 5 5 5 5 5 4 4 2 3 6 4 5 4 4 4 5 5 4 4 4 4 4 5 5 3 3 3 4 3 4 4 4 4 3 3 5 5 4
3 4 7 6 4 3 5 3 3 0 1 2 6 5 5 1 3 3 2 1 4 9 9 7 8 7 7 7 7 7 7 8 7 8 8 10 10 9 6 7 5 5 5 8 8 7 6 6 7 5 6 6 6 7 8 6 7 8 7 7 5 2 4 5 4 3 4 3 7 3 5 4 5 4 4 5 4 3 4 5 5 5 5 3 3 3 3 2 3 4 5 5 4 2 3 2 4
3 6 5 6 7 6 3 4 2 2 3 2 1 3 2 2 3 4 3 0 4 7 9 8 9 10 8 8 6 6 6 6 5 6 6 7 6 6 4 4 5 5 4 2 3 4 5 5 6 6 6 5 5 6 6 6 6 7 7 6 8 5 5 4 4 4 3 3 6 4 4 5 5 5 4 4 5 4 5 4 5 5 5 5 4 4 5 5 4 4 4 5 4 5 3 3 3
6 5 7 6 8 4 3 6 2 3 1 3 2 4 2 0 3 6 3 2 2 4 5 4 3 6 7 8 9 8 8 7 7 6 6 6 5 5 5 7 6 4 4 4 4 4 4 4 5 4 4 3 4 5 5 6 6 6 7 8 9 8 6 6 5 3 3 3 6 4 5 5 4 5 4 4 5 4 4 3 4 4 4 4 5 6 5 6 5 5 5 6 5 6 5 6 6
4 1 3 5 3 6 4 4 5 2 2 4 3 2 0 4 2 1 4 6 5 4 8 9 5 9 10 9 8 8 7 6 7 7 6 7 6 4 4 4 4 3 3 3 3 2 3 4 5 5 4 4 4 4 5 6 6 5 5 8 8 8 8 7 7 6 3 4 4 5 3 5 4 4 3 5 5 4 4 4 3 5 5 5 6 5 5 6 6 6 6 6 6 6 5 7 6
5 6 7 5 1 3 1 4 1 2 3 1 3 2 1 2 3 1 2 5 6 5 7 10 6 4 4 5 9 9 8 7 8 7 6 6 7 7 5 4 4 4 6 5 4 3 3 4 5 7 5 4 5 3 3 4 4 5 5 5 4 4 4 5 6 5 3 4 5 5 4 5 4 5 3 5 3 3 3 5 4 5 5 5 5 6 5 6 6 6 6 6 6 6 6 7 7
5 5 5 5 2 2 2 2 0 3 4 3 1 3 1 3 5 1 3 4 5 7 6 6 8 7 7 8 7 8 8 8 7 5 3 4 5 4 3 4 5 6 5 6 5 4 4 4 5 7 6 3 2 2 3 5 3 6 8 7 5 2 3 4 5 5 3 2 4 5 4 5 5 4 4 3 2 2 3 3 4 4 4 4 5 6 5 5 5 7 6 7 7 5 6 8 8
7 3 9 7 8 5 2 3 3 6 5 2 3 1 3 2 1 5 3 4 4 3 3 4 3 1 3 5 6 6 5 4 6 8 9 8 7 4 2 3 5 5 4 5 5 5 4 5 5 6 4 4 4 4 4 6 10 9 8 8 7 6 1 0 1 3 5 3 3 5 3 3 5 3 3 0 1 3 3 3 4 5 4 4 4 5 5 5 5 6 6 6 5 5 7 7 7
0 2 6 6 5 7 2 4 3 3 3 2 1 2 1 1 2 5 3 4 7 6 7 6 7 5 4 6 7 7 7 9 9 10 10 9 6 3 3 9 5 5 6 5 5 5 6 5 4 3 5 4 4 5 6 9 10 9 8 8 4 1 1 0 1 2 2 3 3 5 4 3 3 3 2 2 2 1 2 4 3 4 3 4 4 5 5 5 5 7 6 6 6 2 7 7 6
2 3 4 4 2 10 6 2 1 3 5 3 0 4 3 6 2 2 6 6 6 7 7 6 6 6 6 6 5 6 8 9 8 8 7 9 9 1 10 13 9 6 6 7 7 6 6 4 4 6 5 4 6 7 5 6 10 10 7 5 4 4 3 4 3 3 4 3 2 4 4 3 3 3 3 3 2 2 2 2 4 3 3 3 4 4 4 4 4 5 6 6 6 4 6 7 5
7 2 5 2 3 6 7 3 3 3 4 3 2 0 4 3 2 5 5 5 4 6 7 4 5 5 8 5 5 5 5 4 3 4 4 6 14 18 14 6 3 4 4 4 4 4 4 4 7 8 7 6 4 10 13 9 8 7 8 10 8 7 6 3 2 2 1 3 2 3 3 3 3 2 3 3 3 2 2 2 3 2 2 2 3 3 4 4 5 5 5 5 4 5 6 4 5
4 3 5 3 1 2 2 6 1 1 0 1 0 0 3 3 2 3 3 3 4 3 4 4 4 5 5 5 7 7 9 7 4 5 1 2 2 2 4 4 2 2 1 2 3 4 5 5 6 7 7 8 9 10 10 9 9 6 5 7 8 6 5 5 4 5 4 2 2 3 3 3 3 3 3 3 3 2 2 3 2 2 1 1 2 3 3 4 4 6 4 5 4 5 6 6 4
3 3 3 1 3 1 4 4 4 7 3 3 2 2 2 4 2 0 3 3 4 2 3 1 1 3 4 2 4 5 10 10 3 5 4 3 3 4 5 5 5 4 2 3 4 5 6 6 8 8 8 9 10 10 7 6 6 8 8 5 3 3 4 5 6 7 7 8 6 4 4 4 6 4 4 4 3 2 1 1 2 2 1 1 1 2 2 2 3 4 5 5 4 6 6 6 5
2 3 2 1 3 2 4 2 2 3 7 4 4 1 3 3 3 1 4 4 4 3 3 1 1 1 1 0 3 4 5 6 4 4 4 3 2 3 4 4 4 4 4 4 4 4 5 6 7 8 10 9 10 7 5 4 5 6 7 7 8 5 5 5 5 7 8 8 7 5 5 3 4 4 5 5 4 3 2 2 1 2 1 0 0 0 1 1 1 2 1 3 3 3 5 4 5
5 5 2 5 6 4 4 3 1 2 4 4 5 3 5 5 2 5 4 4 4 3 3 2 0 2 2 2 2 2 5 6 7 4 3 3 3 3 3 5 5 6 5 5 4 5 4 5 5 7 7 7 8 8 8 8 7 6 7 7 7 6 6 5 5 5 2 2 4 6 4 1 2 3 6 5 4 3 3 3 3 3 2 1 0 0 1 1 1 2 1 1 3 3 4 4 4
Wind_Direction
230 284 231 168 95 132 99 4 151 301 90 250 302 195 253 286 247 342 289 327 311 305 355 24 54 321 209 187 139 115 71 147 198 140 212 236 49 85 96 112 122 122 127 135 140 141 140 145 139 132 130 130 131 131 132 129 123 120 119 118 117 117 117 117 118 119 121 123 123 123 123 124 123 119 117 115 114 120 122 120 121 124 123 121 120 119 116 115 114 112 113 114 116 118 119 119 114
233 309 159 184 129 80 196 124 95 346 39 18 250 133 251 283 12 226 302 294 229 87 72 84 73 68 74 103 130 138 39 42 183 162 94 66 71 55 84 104 115 121 127 134 139 132 141 146 136 131 130 133 131 134 133 129 125 122 120 118 118 118 118 116 115 116 116 117 118 120 120 120 119 116 114 114 115 117 119 123 124 125 122 122 123 123 122 115 113 114 114 117 119 120 120 122 119
253 147 117 59 32 82 104 34 252 69 143 219 265 209 321 272 183 295 298 277 211 116 124 64 100 67 59 53 45 14 229 99 101 99 78 93 96 52 84 92 99 111 123 126 135 141 146 145 138 135 134 136 137 134 132 129 124 120 119 118 121 120 119 117 116 116 116 116 116 116 117 117 117 116 115 114 115 117 122 123 124 122 123 123 123 125 122 116 117 117 117 119 122 124 125 122 116
105 89 163 86 171 18 87 31 84 132 150 214 313 258 204 171 165 271 322 282 140 185 13 35 40 309 120 64 98 67 86 123 74 92 106 118 65 115 110 110 112 118 126 133 141 146 146 145 138 136 135 133 134 131 128 126 124 121 119 119 120 118 118 117 118 117 117 117 116 115 115 117 117 117 118 119 119 121 124 125 126 126 125 120 120 120 118 117 119 119 119 120 121 125 126 124 120
177 306 112 110 114 253 110 170 147 103 225 193 195 271 236 204 191 291 313 292 246 191 31 70 54 342 65 110 20 92 338 85 91 66 102 78 128 127 126 126 128 126 125 127 123 117 123 133 129 124 126 129 128 125 124 122 123 123 121 120 119 117 118 118 119 119 120 117 116 116 116 117 118 121 122 125 127 128 129 128 129 126 117 113 117 120 120 119 116 116 119 123 129 128 121 117 120
61 49 358 103 264 180 63 81 124 206 225 134 237 255 206 206 187 229 286 297 266 112 110 81 152 286 15 9 7 54 340 108 112 55 80 136 128 131 118 114 112 108 105 107 115 117 132 133 125 125 132 133 130 128 125 124 123 123 123 124 123 119 120 120 121 122 122 120 119 120 119 117 118 119 121 124 124 126 128 125 120 117 118 120 121 120 116 114 116 116 118 124 126 119 116 118 117
224 57 355 36 25 54 167 151 208 214 267 170 244 286 278 204 210 190 301 325 255 90 21 78 103 102 88 44 81 49 37 318 190 59 80 126 110 111 104 93 94 96 101 102 112 119 131 130 128 133 135 134 132 129 128 128 126 128 128 126 126 127 126 125 123 124 124 123 121 121 120 118 117 116 115 113 115 119 121 124 123 122 121 122 121 118 116 115 115 115 118 120 121 117 115 113 114
31 132 266 106 213 57 110 200 243 142 272 172 232 267 280 282 220 214 241 99 291 152 28 113 74 99 76 300 128 50 37 49 98 107 110 107 104 98 103 107 107 107 106 104 112 127 136 123 133 135 132 128 131 129 130 132 131 131 130 129 128 129 130 129 129 127 124 123 123 122 121 119 118 118 116 115 115 118 122 124 124 123 125 122 119 118 115 115 113 115 119 120 117 117 120 122 123
348 85 308 77 98 40 61 216 243 236 282 290 267 241 273 272 291 232 166 229 55 134 157 126 134 91 126 66 56 73 54 89 101 108 104 107 103 109 108 109 113 115 108 101 106 120 127 136 139 140 130 105 51 137 138 137 135 134 133 129 129 129 131 127 127 126 124 123 123 122 122 121 119 119 120 119 117 120 121 121 124 126 125 123 122 120 119 118 114 113 117 122 126 125 121 119 114
35 100 229 146 125 196 9 292 147 236 215 236 253 278 276 288 278 182 190 178 206 128 103 80 107 109 137 110 108 42 79 106 104 92 98 103 109 101 91 91 103 110 106 101 97 107 112 128 130 133 126 142 181 158 143 139 140 137 135 131 128 128 127 124 123 123 122 121 119 119 120 121 121 122 122 123 122 120 121 121 124 126 127 125 123 120 120 119 116 113 113 115 116 114 113 112 111
207 14 135 82 50 150 206 262 267 307 265 289 277 249 252 266 252 236 179 180 183 145 155 124 77 121 127 94 56 90 113 118 112 113 107 105 102 100 101 103 106 107 109 111 116 114 111 116 130 132 142 158 169 146 142 141 137 133 129 125 124 126 126 124 123 121 118 117 119 120 119 121 123 124 125 127 123 121 120 120 121 123 124 123 119 119 117 117 115 112 107 100 95 89 89 105 111
43 10 22 107 184 169 234 173 278 277 286 310 276 293 266 272 280 39 155 122 148 132 155 171 155 137 100 117 112 120 119 117 116 114 110 108 99 103 109 109 113 119 124 121 111 108 112 126 130 137 148 170 146 143 137 140 137 129 127 128 126 125 121 122 121 118 116 117 117 118 122 124 126 126 126 127 124 120 120 120 120 121 122 120 119 117 116 115 114 109 103 97 87 84 90 103 112
129 107 89 103 226 135 195 118 253 298 333 297 251 290 318 336 3 230 154 117 137 125 109 230 147 144 112 140 112 116 117 130 121 109 107 108 108 107 104 108 115 120 120 119 117 121 127 126 129 126 152 166 152 140 134 138 129 127 132 132 132 130 131 130 129 126 123 121 123 124 121 123 125 127 127 130 126 122 120 119 120 121 123 124 121 121 123 124 123 117 106 95 90 87 87 98 111
116 181 133 207 76 126 138 194 234 22 303 253 263 283 331 360 319 174 125 103 129 104 300 141 122 114 91 113 134 137 137 136 117 109 110 111 108 98 100 109 112 113 122 129 133 139 143 145 140 138 146 158 157 150 145 140 133 135 140 140 137 134 136 133 131 130 131 132 129 124 124 125 128 126 125 123 127 128 127 127 126 125 124 123 125 127 130 130 130 123 111 98 86 83 86 82 87
201 143 84 118 113 94 248 105 199 153 254 261 284 359 338 1 49 72 81 106 37 213 91 45 148 316 188 162 166 171 157 143 123 122 118 110 99 97 106 112 114 121 132 137 142 148 144 140 136 133 137 141 153 143 146 143 146 148 146 144 140 139 137 140 140 140 141 135 131 129 132 132 132 128 124 123 121 129 134 131 130 126 126 128 131 135 137 137 132 123 114 95 83 73 75 76 67
148 84 86 142 243 154 256 157 165 91 262 219 279 0 5 343 29 55 313 168 144 33 42 160 6 114 170 176 171 145 147 126 120 118 120 110 106 108 116 122 125 131 128 127 134 120 116 136 142 140 141 140 142 149 142 141 153 156 153 146 144 146 147 146 143 144 140 138 135 138 138 135 132 130 130 126 131 132 131 135 130 126 129 133 137 141 141 136 130 123 106 81 74 72 66 58 49
72 82 76 36 238 150 232 172 147 220 258 275 297 35 28 355 340 69 20 58 112 32 64 18 296 311 138 133 118 128 123 120 119 122 120 122 124 128 132 134 141 134 119 142 143 140 140 147 137 122 138 139 142 145 146 143 157 156 154 152 151 151 150 149 148 148 144 144 141 127 99 87 87 92 109 122 133 123 125 133 132 133 134 137 144 147 139 134 129 117 94 78 69 70 66 56 38
60 118 112 244 198 133 202 180 187 171 278 296 338 27 41 360 25 101 49 40 66 71 54 38 53 60 102 110 116 122 124 126 132 130 136 137 140 143 148 152 149 156 154 159 157 157 152 146 132 115 127 140 149 147 147 148 151 152 146 151 147 152 153 151 147 145 144 121 132 117 107 106 96 94 118 130 109 130 128 135 133 133 137 141 143 144 139 124 126 118 100 82 71 67 66 60 35
108 113 109 223 172 238 160 206 213 10 267 275 288 337 121 263 136 210 81 285 21 50 49 78 81 94 103 116 122 129 133 135 138 139 144 151 159 159 160 156 157 153 165 178 171 168 162 142 133 136 147 155 148 140 136 133 134 132 134 138 144 152 158 147 129 128 96 117 117 119 114 99 107 112 114 125 120 119 131 133 136 135 137 141 139 143 139 130 118 116 93 86 67 56 56 61 63
221 121 237 249 209 239 237 243 260 183 26 311 318 312 353 280 168 162 144 140 75 138 137 96 122 133 133 132 134 136 134 141 145 144 150 161 165 163 162 162 162 173 172 180 168 165 158 139 142 146 152 145 126 126 113 104 115 121 122 128 125 121 119 117 121 124 129 133 129 115 107 108 105 127 157 154 134 97 99 126 138 130 125 122 121 74 86 160 130 72 79 71 56 45 43 38 55
270 107 192 224 200 149 266 238 254 286 130 275 288 308 335 323 164 104 148 103 219 251 220 166 163 151 143 141 141 140 137 144 149 154 157 167 169 172 173 170 172 174 169 145 143 155 122 118 115 120 132 121 117 123 118 115 117 114 112 110 108 103 105 104 114 122 139 130 119 112 115 111 108 76 43 64 81 96 67 52 60 49 49 42 66 64 36 20 45 52 48 53 49 46 33 23 32
109 210 189 179 126 137 252 226 247 254 129 184 311 337 290 310 49 110 149 135 226 203 205 207 152 150 148 148 148 141 145 148 154 162 168 172 173 173 166 154 150 141 133 150 146 147 136 140 146 157 144 140 141 141 133 142 135 131 127 130 118 107 115 121 122 139 138 126 115 126 120 114 102 75 58 81 84 104 100 79 82 76 62 67 56 59 38 38 36 55 61 58 46 46 45 38 8
246 314 247 223 199 226 254 199 215 183 286 230 321 248 338 69 325 174 304 178 267 270 208 161 158 156 144 137 143 148 154 160 163 170 169 172 176 176 173 173 168 163 162 143 141 142 152 168 162 144 140 137 143 136 124 128 133 131 129 135 128 133 151 149 155 152 145 134 132 137 124 117 108 97 94 100 117 117 122 116 110 95 94 89 63 70 18 38 17 39 48 55 46 27 359 18 38
142 247 351 307 157 210 252 274 202 256 268 261 209 353 307 281 299 212 356 300 294 298 133 142 146 148 143 145 156 160 162 163 172 173 174 180 182 180 176 173 141 122 143 137 150 158 172 170 140 157 153 140 128 141 132 129 125 140 153 160 141 162 163 173 167 159 141 140 138 128 126 135 137 130 131 119 141 131 138 138 128 121 116 117 104 141 122 51 341 357 21 43 39 11 348 350 1
197 280 244 265 151 233 262 263 287 248 247 265 320 291 260 226 207 104 288 300 2 95 120 137 147 146 146 148 155 159 165 167 168 171 174 186 185 163 145 101 112 127 151 132 135 150 164 161 147 158 156 140 128 142 144 139 139 144 168 152 150 178 180 184 165 141 139 137 124 131 142 142 122 120 129 127 121 122 124 134 137 136 125 122 142 128 115 130 323 329 349 348 27 336 346 347 359
203 226 205 288 287 273 260 289 263 249 268 177 156 247 261 184 134 88 232 100 112 119 126 139 146 148 152 159 161 163 167 173 168 174 181 175 172 172 166 129 121 128 125 112 121 122 128 147 161 156 156 139 138 150 142 147 150 166 171 173 180 177 184 173 158 156 151 142 135 147 145 128 144 155 139 125 121 138 137 129 139 133 124 129 149 172 126 125 151 231 310 325 321 329 347 325 9
174 210 217 235 257 315 300 213 272 187 216 167 189 245 279 325 77 263 198 131 131 130 133 144 152 152 154 156 161 165 168 178 178 168 163 172 176 184 152 116 121 117 117 117 121 134 159 159 163 160 148 156 145 151 150 155 163 173 181 177 192 177 168 167 172 164 153 139 141 143 124 137 144 135 132 117 107 127 138 128 126 115 105 92 129 144 131 143 160 198 245 285 318 318 309 318 356
175 191 283 270 304 255 242 293 263 129 281 190 181 229 95 12 76 219 184 141 146 137 146 155 153 147 152 155 161 163 178 176 163 169 178 175 182 176 145 142 123 115 119 123 129 147 157 166 165 162 158 157 157 154 160 166 177 181 182 181 191 161 164 180 174 167 159 132 147 167 137 138 156 138 124 142 145 144 160 155 121 115 113 248 208 178 170 146 156 178 195 241 255 272 330 3 21
247 129 301 293 1 354 283 197 259 165 245 169 183 101 339 8 201 260 145 143 150 144 151 160 156 153 156 166 163 173 181 166 169 186 192 177 169 131 125 118 125 116 121 133 144 160 170 165 155 155 153 162 163 164 168 172 180 183 177 184 170 159 169 168 179 179 136 133 110 8 142 162 164 155 161 150 177 177 172 144 105 112 120 165 265 237 186 149 103 94 43 10 360 2 25 35 53
49 51 154 336 1 341 292 271 99 140 265 134 135 231 267 255 252 283 151 148 147 147 158 163 158 159 166 173 177 178 168 166 186 190 180 173 144 121 119 132 129 129 139 149 145 166 165 145 145 153 160 165 171 164 160 166 178 175 167 157 166 145 173 182 200 145 136 125 128 161 189 186 158 165 163 176 164 169 176 131 91 41 11 267 207 210 177 156 129 107 112 89 43 33 26 53 87
209 263 63 181 28 284 285 71 331 150 200 162 114 225 279 272 272 211 161 161 159 162 168 171 163 167 170 179 183 184 178 175 179 189 186 152 123 121 125 130 136 142 141 147 163 167 156 155 155 162 173 173 171 166 162 160 164 162 159 164 157 163 176 191 232 166 140 141 107 88 109 226 254 157 192 174 182 169 148 83 69 190 179 161 165 180 164 148 128 113 127 98 78 65 18 353 75
28 76 294 327 131 275 299 278 189 173 310 142 122 242 229 260 257 180 170 170 168 162 171 171 163 169 175 178 179 181 177 152 173 193 195 141 135 133 138 151 152 155 158 166 164 165 167 171 171 168 175 176 175 168 149 150 152 149 146 162 130 150 158 173 225 302 99 113 123 130 172 156 201 243 184 165 159 162 104 105 194 213 120 111 156 110 99 118 107 98 97 126 110 79 81 36 345
354 84 255 273 55 261 340 280 206 226 131 28 170 202 329 282 238 186 166 171 178 168 171 171 165 168 174 167 172 179 164 181 200 202 198 159 151 150 154 158 165 172 172 168 169 173 175 179 174 172 177 180 166 145 129 126 125 123 125 106 92 129 129 140 115 129 149 148 120 135 150 158 160 200 238 165 148 125 110 156 202 143 100 151 115 67 40 46 82 83 76 76 115 143 133 128 103
320 16 147 210 176 357 296 305 314 184 145 248 211 135 224 254 205 162 171 182 178 178 177 180 176 173 159 151 158 179 188 195 212 201 194 185 164 159 159 164 171 175 187 180 176 172 161 155 189 183 171 159 148 140 131 121 108 97 90 106 134 110 95 119 131 139 125 111 117 121 120 141 161 168 199 165 106 145 147 171 183 117 151 130 106 105 135 71 64 81 80 48 65 111 132 156 138
213 11 15 329 316 241 246 32 270 34 17 213 254 201 252 274 275 177 175 179 183 190 185 188 185 177 157 149 182 194 197 210 221 189 177 182 171 172 163 168 174 176 184 159 149 164 157 160 171 188 156 143 135 123 116 104 99 87 86 94 94 85 80 91 113 114 105 108 115 116 143 167 157 166 159 151 123 152 140 161 145 147 152 126 109 98 85 96 105 101 112 98 79 97 156 183 153
157 161 191 175 291 295 247 244 271 201 258 231 206 203 217 253 145 185 176 179 184 184 192 188 140 139 146 174 188 192 204 224 215 146 170 173 170 179 180 176 177 171 160 151 157 154 166 154 155 154 151 143 127 117 118 113 105 117 118 89 84 121 132 132 87 111 100 113 128 138 149 154 139 151 154 151 153 159 148 150 131 137 141 125 122 133 128 102 114 124 138 126 113 80 88 106 127
114 103 128 205 214 279 279 272 259 94 114 234 219 196 198 225 187 179 177 161 167 178 183 177 172 165 170 188 196 198 204 220 183 167 169 172 164 167 193 199 184 169 159 153 156 164 167 170 162 176 167 157 143 140 139 141 131 109 84 140 158 187 156 139 122 74 135 145 152 153 165 161 160 156 151 144 150 162 132 144 131 119 125 128 129 125 116 108 129 146 111 81 117 103 55 70 95
140 151 226 297 174 251 243 240 331 297 165 259 204 164 209 231 203 172 158 157 186 190 183 185 188 181 182 189 198 198 195 130 133 148 168 172 168 169 162 180 182 164 179 157 161 172 171 167 178 168 160 167 154 153 152 151 171 171 157 167 152 129 125 120 173 298 151 122 127 142 157 158 170 170 143 137 145 144 135 122 114 127 140 115 101 97 103 111 109 91 111 95 44 54 81 161 228
58 189 206 279 270 244 282 280 312 314 175 264 143 144 232 332 225 192 179 188 199 196 194 195 182 180 184 196 207 191 172 197 181 185 178 185 177 169 163 165 186 187 172 167 158 154 168 176 177 162 167 161 148 148 151 160 163 141 128 149 133 107 64 67 80 33 82 89 59 71 95 130 158 156 124 128 140 135 127 123 114 118 123 128 114 111 120 122 132 124 103 107 94 65 146 138 58
124 90 86 218 237 32 303 285 316 359 54 185 102 94 10 334 325 286 275 189 358 123 132 157 186 201 201 207 201 186 197 188 198 189 186 185 177 167 166 172 181 170 162 159 158 166 173 177 164 159 158 145 147 155 152 145 121 107 86 105 90 117 142 119 95 72 68 76 56 53 53 73 125 130 123 126 109 98 108 115 127 135 145 136 132 138 143 141 145 120 109 122 133 95 360 22 35
269 171 162 252 267 241 165 273 342 313 38 87 75 52 6 360 128 254 246 273 32 90 126 143 175 180 206 227 218 200 196 193 196 193 185 181 181 180 178 179 156 166 174 174 173 174 174 170 164 159 154 156 163 153 149 139 116 93 96 88 90 81 58 54 59 29 34 74 74 48 32 50 87 115 120 122 125 106 102 115 122 135 143 149 151 143 146 147 147 114 121 120 91 153 145 55 39
288 229 194 199 187 230 272 345 19 25 355 21 97 44 6 300 289 227 282 148 241 253 165 188 177 181 180 208 205 191 194 190 195 196 200 190 177 162 163 165 172 179 182 186 175 169 157 160 151 145 142 155 159 160 156 144 135 133 125 115 104 83 98 101 115 127 45 47 82 33 57 60 75 93 99 116 126 130 121 120 121 119 111 106 58 72 98 109 116 121 144 143 147 203 153 87 107
79 265 201 188 178 171 72 6 78 11 118 338 52 132 256 324 289 250 316 251 236 293 206 205 193 191 195 209 193 191 185 187 183 177 163 171 185 171 180 181 185 180 189 164 162 172 168 163 162 158 161 164 163 161 157 135 131 146 153 155 154 160 149 199 141 140 128 106 89 71 59 49 62 95 94 105 106 102 108 110 118 120 120 119 123 114 123 135 154 163 150 143 172 149 121 163 181
226 246 132 115 123 147 137 104 114 188 251 295 47 102 126 119 282 308 311 293 258 270 247 229 219 202 200 202 196 190 187 181 179 187 182 184 190 190 188 183 183 184 171 165 171 173 174 168 163 166 166 163 171 161 162 159 149 154 136 130 144 148 150 146 143 129 124 130 88 74 72 54 53 69 99 92 93 103 105 95 97 104 104 112 126 130 142 149 136 102 137 144 128 165 165 180 162
217 194 146 159 159 156 118 79 96 237 137 255 328 355 74 263 264 328 6 116 276 250 239 225 224 217 205 195 199 196 189 185 182 184 184 185 190 195 182 183 177 162 174 179 182 181 176 168 162 161 169 168 173 176 164 169 152 152 148 139 114 91 114 119 121 99 114 114 94 69 78 71 62 55 71 91 81 95 102 114 111 106 112 122 124 127 120 110 121 126 118 126 146 122 183 164 128
260 148 84 76 66 63 93 102 79 334 61 273 283 13 138 279 285 335 353 239 275 255 252 233 210 212 200 191 195 197 189 188 188 189 183 186 190 191 185 150 161 179 174 191 178 161 172 162 166 169 176 177 174 179 166 156 146 139 136 135 126 124 115 95 96 107 102 105 97 84 82 74 73 69 63 72 83 73 94 103 123 135 138 131 112 107 99 89 80 85 95 109 115 100 50 83 116
117 97 65 26 35 28 18 59 90 66 26 267 259 310 140 204 252 193 121 229 212 288 296 278 235 198 198 193 187 186 188 184 184 184 181 178 174 169 164 180 176 147 152 175 186 184 168 166 162 164 180 183 183 181 165 151 139 145 142 144 143 140 138 129 113 94 98 88 99 78 81 84 78 86 83 71 78 82 84 85 101 106 97 102 106 109 109 113 106 104 94 85 83 101 95 92 87
139 67 114 58 358 10 29 346 41 96 274 263 279 251 155 148 300 320 252 301 293 272 277 283 247 209 194 187 187 181 177 179 176 174 169 158 147 155 154 164 155 160 144 186 210 171 166 160 157 164 170 186 190 185 168 149 143 146 145 149 149 149 146 144 144 155 163 135 122 107 93 84 69 79 78 93 74 69 91 83 81 85 88 96 95 106 111 113 116 110 100 99 93 89 96 92 94
75 78 50 115 248 42 264 7 180 174 182 226 317 282 43 209 214 189 275 277 294 261 243 266 277 279 239 190 179 173 169 166 176 174 162 158 159 157 159 143 132 158 191 190 198 204 178 167 174 171 188 182 196 190 144 125 137 153 149 137 119 123 126 137 143 146 174 147 137 115 105 101 98 86 75 103 93 84 88 101 97 99 99 96 111 104 106 109 111 104 104 99 103 105 113 110 101
112 153 136 97 87 53 193 286 271 313 282 253 330 279 226 259 300 314 324 280 260 279 281 264 265 245 213 182 171 164 164 168 167 149 116 72 58 63 81 155 189 191 190 187 187 191 195 187 185 182 185 139 87 94 128 144 118 62 48 38 40 74 128 146 152 146 163 167 147 138 146 149 136 142 143 132 140 94 78 97 106 97 103 111 111 112 113 114 108 107 108 105 105 117 109 102 107
205 127 145 178 144 156 194 192 171 201 192 280 291 64 222 134 241 331 303 279 307 321 332 345 346 269 167 140 130 123 122 88 81 70 73 76 65 65 46 227 200 202 200 188 183 190 185 194 188 188 155 107 118 157 143 85 71 78 76 63 36 350 8 311 101 136 142 171 143 126 138 140 129 153 123 40 54 91 111 106 109 109 115 113 113 107 107 106 108 103 104 110 109 121 111 113 118
98 163 83 98 212 148 135 204 142 155 131 35 215 213 184 168 287 299 319 358 16 2 15 21 32 19 62 99 112 118 108 107 108 106 100 98 99 86 219 248 228 201 196 187 188 183 189 196 180 100 90 115 141 135 123 128 129 118 105 95 94 292 304 132 141 113 136 137 163 138 155 149 131 122 82 67 36 58 99 108 91 100 104 107 105 109 108 104 107 105 101 105 107 119 112 109 121
232 103 184 206 150 105 95 64 42 98 62 195 277 318 318 304 6 338 348 37 2 10 7 23 39 51 53 62 80 101 114 115 114 114 126 125 94 3 258 246 220 204 197 194 185 181 182 167 127 106 125 130 164 165 115 69 68 72 76 83 129 189 212 202 177 185 161 131 161 141 145 160 123 106 100 81 63 40 12 87 102 89 77 77 83 78 87 90 88 97 109 111 111 107 107 116 118
97 163 229 170 132 116 123 149 338 58 142 238 31 192 302 40 227 329 18 39 356 12 0 360 37 56 79 67 68 64 51 48 78 104 122 173 174 199 220 246 245 219 205 180 168 158 150 136 130 139 140 137 71 55 52 68 99 130 151 152 187 198 183 175 178 177 158 115 150 124 116 136 147 121 108 90 86 61 23 42 88 91 66 72 91 92 102 106 102 96 104 97 117 114 100 88 98
152 195 163 112 211 169 343 99 114 115 207 264 347 16 267 166 245 351 25 9 330 7 7 18 36 58 71 94 101 99 83 59 57 87 358 321 349 355 344 326 348 9 44 94 100 98 95 97 111 120 113 99 99 106 137 157 158 161 157 165 188 186 168 164 170 158 139 113 178 160 162 165 131 134 117 108 99 81 59 54 52 60 55 66 78 103 113 111 114 113 110 114 113 113 108 102 107
20 81 72 356 104 149 126 195 165 119 194 83 264 49 208 219 215 208 271 265 274 296 54 4 8 90 110 121 118 125 123 119 175 147 113 63 51 42 39 31 19 13 27 57 94 97 104 114 115 115 116 130 141 163 161 130 146 155 176 172 182 206 171 173 183 165 154 176 191 182 163 175 175 145 130 123 117 113 90 71 65 69 41 28 23 24 22 70 102 114 134 129 138 121 117 122 115
60 38 344 20 36 210 103 41 80 156 160 172 159 308 285 273 236 311 304 266 254 219 168 263 313 17 47 151 124 103 102 132 128 75 80 84 85 75 72 73 68 46 40 48 58 90 102 105 117 130 138 150 162 153 119 142 165 180 170 181 188 192 183 184 196 184 204 186 165 161 187 207 145 156 145 138 134 127 108 103 85 70 74 60 51 32 30 13 47 77 49 100 96 97 109 100 102
140 145 150 167 117 121 129 216 52 75 105 192 124 222 269 271 283 294 289 278 259 230 171 170 334 10 27 348 23 89 102 94 99 96 65 49 39 66 82 79 68 60 35 47 49 72 87 98 120 135 146 164 162 161 161 169 183 181 191 184 180 175 181 190 225 209 200 293 154 150 154 123 256 177 156 147 121 93 74 61 45 27 27 33 19 20 16 34 66 105 86 60 124 112 117 120 108